Weather Roundup
Issued by NWS

Home | Current Version | Previous Version | Graphics & Text | Print | Product List | Glossary Off
Versions: 1 2 3 4 5 6 7 8 9 10 11 12 13 14 15 16 17 18 19 20 21 22 23 24 25 26 27 28 29 30 31 32 33 34 35 36 37 38 39 40 41 42 43 44 45 46 47 48 49 50

000
NZUS93 KARX 170810
HRRWXR

CURRENT HOURLY OBSERVATIONS ACROSS
MUCH OF THE UPPER MISSISSIPPI VALLEY
NATIONAL WEATHER SERVICE LA CROSSE WI
300 AM CDT THU AUG 17 2017


...SOUTHEAST MINNESOTA...


CITY           SKY/WX    TMP DP  RH WIND       PRES   REMARKS
ROCHESTER      CLOUDY    66  65  96 SW17G25   29.62F
ROCHESTER/MAYO CLOUDY    67  65  94 SW17      29.62F
WINONA         MOCLDY    70  64  83 SW6       29.62F
AUSTIN         RAIN      66  63  88 SW14      29.63F
ALBERT LEA     CLOUDY    70  66  88 SW9       29.63S
DODGE CENTER   CLOUDY    66  63  88 S14       29.61S
PRESTON        CLOUDY    66  62  88 SW9G16    29.65F
OWATONNA       CLOUDY    66  64  94 S17G24    29.58F
FARIBAULT      CLOUDY    66  64  94 S13G23    29.55F
$$

...ELSEWHERE IN MINNESOTA...


CITY           SKY/WX    TMP DP  RH WIND       PRES   REMARKS
MINNEAPOLIS    LGT RAIN  68  65  90 S15G23    29.50F FOG
INTNL FALLS    LGT RAIN  60  59  96 NE3       29.80F FOG
DULUTH         LGT RAIN  60  60 100 E16G23    29.69F
RED WING       CLOUDY    70  64  83 MISG      29.55F
REDWOOD FALLS  RAIN      65  63  93 NW23G43   29.56R FOG
MANKATO        LGT RAIN  66  63  90 SW17G29   29.52F
WORTHINGTON    LGT RAIN  65  63  93 W13       29.70F
FAIRMONT       CLOUDY    67  63  87 W15       29.64F
$$

...SOUTHWEST WISCONSIN...


CITY           SKY/WX    TMP DP  RH WIND       PRES   REMARKS
LA CROSSE      PTCLDY    75  68  78 SW15      29.63F
PRAIRIE DU CHI CLOUDY    73  67  82 SW12G17   29.69S
BOSCOBEL       NOT AVBL
LONE ROCK      NOT AVBL
PLATTEVILLE    MOCLDY    73  73 100 S9        29.73R
FORT MC COY    CLOUDY    71  69  94 S3        29.65F
CAMP DOUGLAS   CLOUDY    71  71 100 S5        29.66F
MAUSTON-NEW LI LGT RAIN  73  72  98 S3        29.67S
VIROQUA        PTSUNNY   71  71  98 SW8       29.68F
WIS DELLS      CLOUDY    73  71  93 S10       29.69F
$$

...ELSEWHERE IN WISCONSIN...


CITY           SKY/WX    TMP DP  RH WIND       PRES   REMARKS
MILWAUKEE      NOT AVBL
MADISON        NOT AVBL
GREEN BAY      CLOUDY    70  70 100 SE12      29.72F
EAU CLAIRE     PTCLDY    69  67  93 SE9       29.58F
BLACK RVR FLS  CLOUDY    71  71 100 SE3       29.63F FOG
MEDFORD        LGT RAIN  63  63  99 SE8       29.68F
WAUSAU         LGT RAIN  64  64 100 SE8       29.68F
WIS RAPIDS     CLOUDY    70  69  97 SE8       29.68F FOG
MARSHFIELD     LGT RAIN  67  65  93 S10       29.68F FOG
RICE LAKE      CLOUDY    66  65  95 E10       29.60F
$$

...NORTHEAST IOWA...


CITY           SKY/WX    TMP DP  RH WIND       PRES   REMARKS
WATERLOO       NOT AVBL
DUBUQUE        NOT AVBL
DECORAH        CLOUDY    68  64  88 VRB6G13   29.68F
MASON CITY     CLOUDY    67  64  90 SW14      29.68S
CHARLES CITY   CLOUDY    66  66 100 SW9       29.69F
OELWEIN        CLOUDY    66  66 100 SW7       29.72F
$$

...ELSEWHERE IN IOWA...


CITY           SKY/WX    TMP DP  RH WIND       PRES   REMARKS
DES MOINES     CLEAR     68  65  90 W9        29.75S
IOWA CITY      NOT AVBL
FORT DODGE     CLOUDY    66  63  88 W13       29.73S
MARSHALLTOWN   NOT AVBL
CEDAR RAPIDS   NOT AVBL
$$

...NORTHERN ILLINOIS...


CITY           SKY/WX    TMP DP  RH WIND       PRES   REMARKS
CHICAGO-OHARE  NOT AVBL
CHICAGO-MIDWAY NOT AVBL
MOLINE         NOT AVBL
ROCKFORD       CLOUDY    73  69  87 S9        29.76F
PEORIA         NOT AVBL
$$

NOTE: "FAIR" INDICATES FEW OR NO CLOUDS BELOW 12,000 FEET WITH NO
SIGNIFICANT WEATHER AND/OR OBSTRUCTIONS TO VISIBILITY. WIND
SPEEDS ARE IN MILES-PER-HOUR.




USA.gov is the U.S. government's official web portal to all federal, state and local government web resources and services.